QPF
0.06 0.07 0.07 0.06 0.05 0.05 0.06 0.08 0.08 0.07 0.06 0.05 0.03 0.02 0.02 0.04 0.05 0.04 0.04 0.05 0.04 0.04 0.04 0.04 0.06 0.08 0.13 0.18 0.19 0.18 0.14 0.13 0.11 0.09 0.09 0.09 0.10 0.09
0.05 0.05 0.05 0.06 0.07 0.07 0.07 0.06 0.06 0.07 0.06 0.05 0.04 0.03 0.04 0.03 0.05 0.05 0.06 0.08 0.07 0.05 0.04 0.05 0.07 0.08 0.09 0.11 0.13 0.14 0.14 0.13 0.13 0.12 0.10 0.08 0.08 0.09
0.04 0.03 0.04 0.05 0.06 0.08 0.08 0.08 0.09 0.10 0.09 0.07 0.06 0.06 0.06 0.06 0.07 0.07 0.08 0.09 0.08 0.06 0.06 0.06 0.07 0.07 0.07 0.07 0.08 0.09 0.11 0.11 0.11 0.10 0.10 0.10 0.09 0.09
0.05 0.04 0.04 0.05 0.06 0.05 0.06 0.07 0.08 0.08 0.09 0.10 0.10 0.09 0.08 0.08 0.08 0.07 0.07 0.07 0.07 0.08 0.07 0.06 0.06 0.06 0.06 0.06 0.06 0.06 0.07 0.08 0.09 0.10 0.10 0.10 0.11 0.12
0.03 0.03 0.03 0.04 0.04 0.04 0.04 0.06 0.07 0.07 0.07 0.08 0.08 0.09 0.09 0.08 0.07 0.07 0.07 0.06 0.05 0.05 0.05 0.04 0.04 0.04 0.05 0.06 0.06 0.07 0.07 0.08 0.08 0.09 0.09 0.09 0.10 0.10
0.01 0.02 0.02 0.03 0.04 0.03 0.03 0.04 0.04 0.05 0.06 0.06 0.05 0.05 0.07 0.07 0.06 0.07 0.06 0.05 0.04 0.04 0.03 0.03 0.02 0.02 0.03 0.03 0.04 0.05 0.06 0.07 0.07 0.07 0.07 0.05 0.05 0.06
0.01 0.01 0.01 0.01 0.02 0.03 0.02 0.03 0.03 0.04 0.04 0.04 0.04 0.04 0.05 0.05 0.06 0.06 0.05 0.06 0.05 0.05 0.04 0.04 0.03 0.02 0.03 0.03 0.04 0.05 0.04 0.04 0.05 0.05 0.04 0.04 0.03 0.03
0.02 0.02 0.01 0.01 0.01 0.01 0.02 0.03 0.02 0.01 0.02 0.02 0.03 0.03 0.03 0.04 0.05 0.05 0.05 0.04 0.04 0.04 0.04 0.05 0.05 0.06 0.06 0.06 0.05 0.05 0.04 0.04 0.03 0.03 0.03 0.03 0.03 0.03
0.03 0.03 0.02 0.01 0.01 0.01 0.01 0.02 0.03 0.02 0.02 0.02 0.02 0.02 0.03 0.03 0.04 0.04 0.05 0.04 0.05 0.04 0.03 0.03 0.03 0.04 0.05 0.06 0.07 0.06 0.05 0.05 0.05 0.04 0.04 0.04 0.04 0.04
0.03 0.03 0.02 0.02 0.02 0.02 0.02 0.02 0.02 0.02 0.02 0.02 0.01 0.01 0.02 0.02 0.03 0.03 0.03 0.03 0.04 0.04 0.03 0.03 0.02 0.02 0.03 0.03 0.03 0.03 0.03 0.04 0.03 0.03 0.03 0.03 0.04 0.04
0.02 0.02 0.02 0.02 0.03 0.03 0.03 0.02 0.02 0.01 0.01 0.01 0.01 0.01 0.01 0.01 0.02 0.02 0.02 0.02 0.02 0.03 0.02 0.02 0.02 0.02 0.03 0.03 0.03 0.02 0.02 0.02 0.02 0.01 0.02 0.02 0.03 0.04
0.01 0.01 0.01 0.01 0.01 0.02 0.04 0.04 0.04 0.03 0.02 0.01 0.01 0.01 0.01 0.01 0.02 0.03 0.03 0.03 0.03 0.02 0.02 0.01 0.02 0.02 0.02 0.03 0.03 0.03 0.03 0.02 0.02 0.02 0.02 0.02 0.04 0.05
0.01 0.01 0.01 0.01 0.01 0.01 0.01 0.01 0.02 0.02 0.02 0.02 0.02 0.01 0.01 0.01 0.02 0.03 0.04 0.03 0.03 0.02 0.02 0.02 0.02 0.02 0.02 0.02 0.02 0.02 0.03 0.03 0.03 0.02 0.02 0.03 0.04 0.05
0.02 0.01 0.01 0.02 0.02 0.02 0.03 0.03 0.03 0.03 0.02 0.03 0.03 0.03 0.03 0.05 0.05 0.05 0.05 0.06 0.04 0.03 0.02 0.02 0.02 0.03 0.04 0.04 0.03 0.02 0.03 0.03 0.03 0.03 0.03 0.03 0.03 0.04
0.02 0.02 0.02 0.02 0.02 0.03 0.03 0.04 0.04 0.04 0.04 0.05 0.05 0.05 0.05 0.05 0.06 0.06 0.06 0.06 0.05 0.04 0.03 0.03 0.04 0.04 0.05 0.04 0.04 0.04 0.05 0.05 0.04 0.04 0.03 0.03 0.03 0.03
0.01 0.01 0.01 0.01 0.02 0.02 0.02 0.03 0.03 0.04 0.05 0.06 0.07 0.07 0.07 0.07 0.08 0.06 0.05 0.06 0.07 0.07 0.05 0.04 0.04 0.04 0.04 0.03 0.03 0.04 0.05 0.07 0.07 0.06 0.05 0.04 0.04 0.04
0.01 0.01 0.01 0.01 0.02 0.02 0.02 0.02 0.02 0.03 0.05 0.06 0.08 0.08 0.05 0.03 0.03 0.04 0.06 0.08 0.07 0.07 0.06 0.05 0.05 0.04 0.04 0.03 0.03 0.03 0.04 0.05 0.06 0.06 0.06 0.06 0.05 0.04
0.01 0.02 0.01 0.01 0.01 0.01 0.02 0.02 0.01 0.01 0.02 0.02 0.03 0.03 0.02 0.02 0.02 0.02 0.02 0.03 0.04 0.04 0.05 0.04 0.04 0.04 0.03 0.02 0.02 0.03 0.03 0.03 0.04 0.05 0.05 0.06 0.06 0.05
0.01 0.01 0.01 0.01 0.01 0.01 0.01 0.01 0.01 0.02 0.02 0.02 0.01 0.02 0.03 0.03 0.02 0.02 0.01 0.01 0.02 0.02 0.03 0.03 0.02 0.02 0.03 0.02 0.02 0.01 0.02 0.02 0.02 0.03 0.04 0.04 0.04 0.04
0.01 0.02 0.02 0.02 0.02 0.02 0.02 0.02 0.03 0.03 0.02 0.02 0.02 0.02 0.01 0.01 0.01 0.01 0.01 0.02 0.02 0.02 0.02 0.02 0.02 0.02 0.02 0.02 0.02 0.01 0.01 0.02 0.03 0.03 0.04 0.03 0.04 0.04
0.02 0.02 0.02 0.03 0.03 0.02 0.03 0.04 0.04 0.04 0.03 0.02 0.01 0.01 0.01 0.01 0.01 0.01 0.01 0.01 0.02 0.02 0.02 0.02 0.02 0.02 0.03 0.03 0.02 0.02 0.02 0.02 0.02 0.02 0.03 0.03 0.03 0.04
0.03 0.03 0.04 0.05 0.05 0.04 0.04 0.03 0.03 0.04 0.03 0.02 0.01 0.01 0.01 0.02 0.01 0.01 0.01 0.01 0.02 0.02 0.02 0.03 0.03 0.03 0.04 0.04 0.03 0.02 0.02 0.03 0.03 0.02 0.02 0.02 0.02 0.02
0.03 0.03 0.03 0.04 0.04 0.04 0.05 0.04 0.04 0.03 0.02 0.02 0.02 0.01 0.02 0.02 0.01 0.01 0.01 0.01 0.01 0.02 0.02 0.03 0.03 0.03 0.03 0.04 0.03 0.02 0.02 0.04 0.04 0.03 0.02 0.02 0.01 0.01
MSLP
1015.37 1015.52 1015.64 1015.70 1015.69 1015.57 1015.36 1015.05 1014.68 1014.27 1013.88 1013.54 1013.26 1013.08 1012.97 1012.93 1012.93 1012.96 1012.99 1013.02 1013.04 1013.06 1013.10 1013.17 1013.26 1013.38 1013.52 1013.65 1013.76 1013.82 1013.82 1013.76 1013.65 1013.50 1013.33 1013.17 1013.02 1012.91
1015.33 1015.51 1015.65 1015.74 1015.75 1015.66 1015.47 1015.20 1014.86 1014.50 1014.14 1013.82 1013.56 1013.37 1013.23 1013.15 1013.09 1013.03 1012.97 1012.91 1012.84 1012.79 1012.77 1012.80 1012.88 1013.00 1013.16 1013.33 1013.48 1013.59 1013.64 1013.62 1013.54 1013.41 1013.25 1013.08 1012.92 1012.79
1015.33 1015.53 1015.70 1015.81 1015.85 1015.79 1015.64 1015.41 1015.12 1014.80 1014.49 1014.20 1013.96 1013.76 1013.59 1013.45 1013.31 1013.16 1012.99 1012.81 1012.63 1012.47 1012.37 1012.33 1012.37 1012.47 1012.63 1012.82 1013.02 1013.18 1013.29 1013.33 1013.31 1013.23 1013.11 1012.96 1012.82 1012.69
1015.39 1015.60 1015.79 1015.92 1015.99 1015.96 1015.85 1015.67 1015.44 1015.18 1014.91 1014.66 1014.43 1014.23 1014.04 1013.83 1013.61 1013.35 1013.07 1012.76 1012.46 1012.18 1011.97 1011.83 1011.79 1011.85 1011.98 1012.17 1012.38 1012.59 1012.75 1012.86 1012.91 1012.91 1012.85 1012.77 1012.66 1012.56
1015.52 1015.74 1015.94 1016.09 1016.18 1016.19 1016.12 1015.99 1015.81 1015.60 1015.39 1015.18 1014.97 1014.76 1014.54 1014.28 1013.99 1013.63 1013.24 1012.81 1012.38 1011.98 1011.64 1011.40 1011.26 1011.23 1011.30 1011.45 1011.64 1011.86 1012.06 1012.22 1012.35 1012.42 1012.45 1012.44 1012.41 1012.37
1015.71 1015.94 1016.15 1016.31 1016.41 1016.45 1016.42 1016.34 1016.21 1016.05 1015.88 1015.70 1015.51 1015.30 1015.05 1014.76 1014.40 1013.98 1013.49 1012.97 1012.43 1011.92 1011.46 1011.10 1010.84 1010.70 1010.67 1010.73 1010.87 1011.06 1011.26 1011.45 1011.63 1011.77 1011.89 1011.98 1012.03 1012.07
1015.95 1016.18 1016.39 1016.56 1016.68 1016.74 1016.74 1016.68 1016.59 1016.47 1016.33 1016.17 1015.99 1015.78 1015.52 1015.20 1014.81 1014.34 1013.81 1013.22 1012.61 1012.01 1011.45 1010.97 1010.59 1010.32 1010.16 1010.11 1010.15 1010.26 1010.42 1010.60 1010.80 1011.01 1011.20 1011.38 1011.54 1011.67
1016.19 1016.43 1016.64 1016.81 1016.94 1017.01 1017.03 1017.00 1016.93 1016.83 1016.70 1016.55 1016.37 1016.15 1015.88 1015.55 1015.15 1014.67 1014.12 1013.51 1012.87 1012.22 1011.60 1011.03 1010.54 1010.13 1009.83 1009.64 1009.55 1009.55 1009.62 1009.76 1009.95 1010.17 1010.42 1010.68 1010.94 1011.17
1016.38 1016.63 1016.85 1017.03 1017.16 1017.24 1017.27 1017.24 1017.18 1017.07 1016.94 1016.78 1016.59 1016.36 1016.09 1015.76 1015.36 1014.90 1014.37 1013.79 1013.16 1012.51 1011.85 1011.22 1010.64 1010.12 1009.68 1009.34 1009.09 1008.95 1008.91 1008.97 1009.11 1009.33 1009.61 1009.93 1010.27 1010.59
1016.48 1016.74 1016.97 1017.15 1017.29 1017.38 1017.40 1017.38 1017.30 1017.19 1017.03 1016.84 1016.63 1016.38 1016.10 1015.77 1015.40 1014.98 1014.50 1013.97 1013.39 1012.77 1012.13 1011.48 1010.84 1010.23 1009.68 1009.19 1008.79 1008.50 1008.33 1008.28 1008.35 1008.54 1008.82 1009.17 1009.56 1009.96
1016.44 1016.72 1016.96 1017.16 1017.31 1017.39 1017.42 1017.38 1017.29 1017.14 1016.95 1016.73 1016.48 1016.20 1015.91 1015.59 1015.24 1014.86 1014.45 1013.99 1013.49 1012.94 1012.34 1011.71 1011.05 1010.39 1009.74 1009.14 1008.60 1008.18 1007.87 1007.71 1007.69 1007.82 1008.07 1008.43 1008.85 1009.31
1016.27 1016.56 1016.82 1017.03 1017.18 1017.27 1017.28 1017.23 1017.11 1016.94 1016.71 1016.45 1016.15 1015.85 1015.53 1015.21 1014.89 1014.55 1014.21 1013.83 1013.41 1012.94 1012.41 1011.82 1011.18 1010.49 1009.79 1009.11 1008.47 1007.93 1007.51 1007.23 1007.13 1007.19 1007.40 1007.74 1008.18 1008.66
1015.97 1016.28 1016.55 1016.76 1016.91 1016.99 1016.99 1016.93 1016.79 1016.58 1016.32 1016.02 1015.69 1015.35 1015.01 1014.68 1014.37 1014.08 1013.78 1013.47 1013.13 1012.74 1012.29 1011.76 1011.15 1010.48 1009.76 1009.03 1008.32 1007.70 1007.19 1006.83 1006.64 1006.63 1006.80 1007.11 1007.54 1008.03
1015.61 1015.91 1016.16 1016.36 1016.49 1016.56 1016.55 1016.47 1016.31 1016.08 1015.80 1015.47 1015.11 1014.75 1014.39 1014.06 1013.75 1013.47 1013.22 1012.96 1012.68 1012.36 1011.97 1011.50 1010.94 1010.29 1009.59 1008.84 1008.11 1007.44 1006.87 1006.45 1006.20 1006.13 1006.25 1006.53 1006.94 1007.42
1015.23 1015.49 1015.70 1015.86 1015.96 1016.00 1015.97 1015.88 1015.71 1015.47 1015.18 1014.84 1014.48 1014.10 1013.74 1013.39 1013.09 1012.81 1012.57 1012.34 1012.10 1011.82 1011.48 1011.06 1010.54 1009.94 1009.26 1008.53 1007.80 1007.11 1006.52 1006.06 1005.77 1005.67 1005.74 1005.99 1006.38 1006.86
1014.87 1015.06 1015.20 1015.30 1015.35 1015.35 1015.30 1015.19 1015.02 1014.79 1014.51 1014.18 1013.83 1013.46 1013.10 1012.75 1012.44 1012.16 1011.92 1011.69 1011.45 1011.19 1010.87 1010.48 1010.00 1009.43 1008.79 1008.09 1007.38 1006.71 1006.12 1005.66 1005.35 1005.22 1005.27 1005.50 1005.86 1006.34
1014.54 1014.63 1014.68 1014.70 1014.68 1014.63 1014.55 1014.43 1014.27 1014.06 1013.82 1013.53 1013.20 1012.86 1012.52 1012.18 1011.87 1011.58 1011.31 1011.07 1010.81 1010.54 1010.22 1009.83 1009.37 1008.83 1008.22 1007.56 1006.89 1006.25 1005.69 1005.24 1004.94 1004.81 1004.85 1005.06 1005.42 1005.88
1014.23 1014.21 1014.15 1014.07 1013.97 1013.87 1013.76 1013.64 1013.50 1013.34 1013.14 1012.90 1012.64 1012.34 1012.03 1011.71 1011.40 1011.10 1010.81 1010.52 1010.24 1009.93 1009.58 1009.18 1008.72 1008.20 1007.61 1007.00 1006.37 1005.78 1005.27 1004.85 1004.58 1004.46 1004.51 1004.72 1005.07 1005.54
1013.88 1013.74 1013.58 1013.41 1013.24 1013.10 1012.97 1012.86 1012.75 1012.63 1012.49 1012.33 1012.13 1011.90 1011.63 1011.34 1011.04 1010.72 1010.40 1010.08 1009.75 1009.39 1009.01 1008.59 1008.11 1007.60 1007.04 1006.47 1005.90 1005.37 1004.91 1004.55 1004.31 1004.23 1004.30 1004.52 1004.88 1005.35
1013.44 1013.20 1012.95 1012.70 1012.49 1012.32 1012.18 1012.09 1012.02 1011.96 1011.90 1011.81 1011.68 1011.51 1011.30 1011.05 1010.75 1010.43 1010.09 1009.73 1009.35 1008.95 1008.52 1008.07 1007.59 1007.08 1006.55 1006.03 1005.51 1005.05 1004.66 1004.36 1004.19 1004.15 1004.25 1004.50 1004.87 1005.35
1012.84 1012.53 1012.23 1011.94 1011.71 1011.53 1011.41 1011.35 1011.33 1011.33 1011.33 1011.32 1011.26 1011.16 1011.00 1010.78 1010.50 1010.18 1009.82 1009.42 1009.00 1008.56 1008.11 1007.63 1007.15 1006.65 1006.16 1005.69 1005.25 1004.87 1004.56 1004.34 1004.24 1004.26 1004.41 1004.68 1005.07 1005.57
1012.06 1011.73 1011.41 1011.12 1010.89 1010.74 1010.65 1010.63 1010.66 1010.72 1010.79 1010.83 1010.84 1010.79 1010.67 1010.49 1010.23 1009.91 1009.54 1009.12 1008.68 1008.21 1007.74 1007.26 1006.78 1006.32 1005.88 1005.47 1005.11 1004.82 1004.60 1004.48 1004.46 1004.55 1004.75 1005.06 1005.47 1005.98
1011.13 1010.80 1010.51 1010.25 1010.07 1009.95 1009.91 1009.94 1010.02 1010.13 1010.24 1010.34 1010.39 1010.38 1010.29 1010.13 1009.89 1009.57 1009.20 1008.78 1008.32 1007.85 1007.38 1006.91 1006.46 1006.04 1005.66 1005.33 1005.07 1004.87 1004.76 1004.74 1004.81 1004.98 1005.24 1005.59 1006.02 1006.53
Thickness
5738 5736 5735 5736 5734 5733 5731 5727 5721 5717 5717 5718 5718 5718 5716 5714 5711 5710 5708 5705 5704 5702 5701 5700 5699 5697 5696 5694 5693 5691 5690 5688 5686 5684 5683 5681 5680 5678
5733 5731 5730 5732 5731 5729 5728 5725 5723 5718 5714 5714 5712 5712 5709 5709 5705 5704 5703 5700 5697 5696 5694 5693 5691 5690 5688 5687 5685 5683 5682 5680 5679 5678 5676 5674 5673 5672
5730 5729 5726 5726 5725 5724 5723 5721 5718 5715 5709 5708 5708 5705 5702 5700 5699 5697 5696 5694 5692 5689 5687 5685 5684 5682 5681 5679 5678 5676 5674 5673 5671 5670 5668 5667 5665 5664
5726 5724 5723 5722 5719 5718 5716 5715 5713 5710 5706 5700 5699 5698 5695 5693 5691 5690 5690 5688 5686 5682 5680 5679 5677 5675 5673 5671 5669 5668 5666 5665 5663 5661 5660 5659 5657 5656
5722 5720 5718 5716 5713 5712 5711 5710 5708 5706 5702 5698 5694 5692 5689 5687 5685 5683 5682 5680 5680 5677 5674 5672 5670 5668 5666 5664 5662 5660 5658 5657 5655 5653 5651 5649 5648 5647
5717 5715 5713 5710 5708 5706 5705 5703 5701 5699 5695 5692 5689 5686 5683 5681 5679 5676 5674 5674 5673 5672 5669 5666 5663 5661 5659 5656 5654 5652 5650 5648 5646 5644 5642 5640 5638 5637
5711 5709 5706 5702 5699 5699 5699 5697 5694 5692 5690 5687 5684 5681 5678 5674 5673 5671 5669 5667 5665 5665 5663 5662 5659 5657 5653 5650 5647 5644 5642 5640 5637 5635 5633 5631 5629 5627
5705 5702 5700 5697 5693 5690 5688 5686 5685 5684 5683 5680 5679 5675 5671 5670 5668 5666 5664 5662 5658 5658 5657 5655 5654 5652 5649 5645 5641 5638 5635 5632 5629 5626 5624 5622 5620 5618
5699 5697 5696 5693 5689 5687 5682 5679 5677 5674 5673 5673 5672 5669 5666 5665 5662 5661 5658 5656 5653 5652 5650 5648 5648 5645 5642 5637 5633 5630 5627 5623 5620 5617 5615 5613 5611 5609
5694 5691 5688 5686 5684 5681 5679 5676 5673 5670 5667 5667 5665 5663 5661 5658 5656 5654 5652 5650 5648 5647 5644 5642 5641 5638 5636 5631 5625 5621 5618 5615 5612 5609 5606 5604 5602 5599
5688 5685 5683 5680 5673 5671 5672 5669 5666 5663 5659 5657 5655 5653 5651 5649 5649 5649 5646 5645 5643 5642 5639 5637 5636 5632 5629 5626 5619 5614 5611 5607 5604 5601 5598 5596 5594 5591
5682 5679 5674 5672 5666 5664 5665 5663 5660 5658 5656 5653 5649 5647 5645 5643 5641 5641 5641 5640 5638 5635 5633 5630 5629 5626 5622 5619 5614 5609 5604 5599 5596 5593 5590 5588 5586 5584
5678 5675 5670 5663 5660 5657 5656 5657 5653 5651 5651 5649 5647 5645 5642 5639 5637 5635 5634 5633 5631 5629 5627 5623 5621 5619 5617 5613 5609 5605 5601 5596 5591 5587 5584 5580 5578 5576
5670 5669 5664 5655 5652 5650 5649 5646 5644 5643 5646 5645 5643 5640 5638 5636 5633 5629 5626 5624 5622 5620 5617 5615 5613 5611 5609 5606 5603 5599 5595 5591 5587 5584 5579 5574 5571 5568
5664 5657 5653 5648 5645 5644 5641 5639 5638 5640 5641 5639 5637 5635 5633 5629 5626 5622 5619 5616 5614 5612 5610 5606 5605 5603 5601 5598 5596 5592 5588 5584 5581 5577 5573 5570 5566 5562
5655 5650 5644 5641 5639 5638 5637 5636 5636 5636 5635 5633 5631 5629 5627 5623 5621 5618 5615 5612 5610 5607 5603 5599 5596 5594 5593 5590 5588 5585 5581 5578 5574 5571 5567 5563 5560 5557
5648 5646 5644 5642 5639 5638 5637 5635 5633 5631 5628 5627 5625 5623 5620 5618 5616 5613 5610 5608 5605 5601 5598 5594 5590 5587 5584 5582 5580 5578 5574 5571 5568 5563 5558 5557 5554 5551
5639 5641 5640 5639 5637 5635 5633 5630 5628 5625 5623 5622 5619 5617 5615 5612 5610 5607 5604 5601 5598 5596 5593 5590 5585 5581 5579 5575 5570 5570 5567 5564 5561 5556 5552 5550 5547 5545
5634 5637 5636 5635 5633 5632 5630 5627 5625 5621 5618 5616 5613 5611 5608 5606 5603 5600 5598 5595 5592 5590 5587 5584 5580 5577 5573 5571 5566 5560 5559 5556 5553 5550 5547 5544 5540 5538
5633 5633 5632 5631 5630 5627 5625 5623 5620 5616 5613 5610 5608 5605 5603 5600 5597 5595 5592 5588 5586 5583 5581 5578 5575 5571 5569 5566 5563 5557 5550 5549 5546 5543 5540 5538 5535 5530
5631 5630 5628 5627 5625 5621 5618 5615 5613 5610 5607 5604 5602 5599 5597 5594 5592 5591 5588 5581 5578 5578 5575 5572 5568 5563 5562 5559 5556 5554 5548 5541 5538 5535 5533 5531 5529 5527
5627 5625 5623 5621 5618 5615 5611 5608 5606 5603 5600 5597 5596 5593 5591 5589 5587 5584 5582 5579 5575 5573 5570 5568 5563 5559 5556 5553 5551 5548 5544 5539 5533 5528 5524 5522 5522 5521
5621 5619 5616 5613 5611 5607 5605 5602 5600 5598 5595 5592 5590 5587 5585 5582 5580 5578 5576 5573 5570 5567 5564 5562 5559 5554 5551 5548 5545 5543 5539 5536 5532 5528 5524 5518 5514 5511